AU860 Weather Reports


Display with metric or nautical units.
time (UTC)temp
F
wind
direction
speed
MPH
gust
MPH
rain 1hr
in
rain 24hr
in
rain mn
in
humidity
%
barometer
mb
20260505034611 58 135 0.0 3.0 0.00 0.00 0.00 77 1010.5
20260505034100 58 178 0.0 3.0 0.00 0.00 0.00 77 1010.5
20260505033555 58 79 0.0 3.0 0.00 0.00 0.00 77 1010.6
20260505033048 58 1 1.0 3.0 0.00 0.00 0.00 77 1010.6
20260505032542 58 28 1.0 3.0 0.00 0.00 0.00 77 1010.7
20260505032036 58 117 1.0 4.0 0.00 0.00 0.00 77 1010.7
20260505031530 58 314 1.0 6.0 0.00 0.00 0.00 77 1010.7
20260505031024 58 63 1.0 6.0 0.00 0.00 0.00 76 1010.8
20260505030518 58 178 1.0 4.0 0.00 0.00 0.00 76 1010.8
20260505030012 58 46 1.0 4.0 0.00 0.00 0.00 76 1010.7
20260505025505 58 174 1.0 4.0 0.00 0.00 0.00 76 1010.7
20260505024959 58 269 1.0 3.0 0.00 0.00 0.00 76 1010.7
20260505024454 58 276 1.0 3.0 0.00 0.00 0.00 76 1010.7
20260505024203 58 142 1.0 4.0 0.00 0.00 0.00 75 1010.6
20260505023442 58 117 1.0 4.0 0.00 0.00 0.00 76 1010.7
20260505022940 59 145 0.0 2.0 0.00 0.00 0.00 75 1010.7
20260505022430 59 46 0.0 1.0 0.00 0.00 0.00 75 1010.7
20260505022151 59 28 0.0 1.0 0.00 0.00 0.00 75 1010.8
20260505021418 59 135 0.0 1.0 0.00 0.00 0.00 74 1010.9
20260505020912 59 1 0.0 1.0 0.00 0.00 0.00 74 1010.9
20260505020406 60 269 0.0 2.0 0.00 0.00 0.00 73 1010.9
20260505020122 60 89 0.0 2.0 0.00 0.00 0.00 73 1010.9
20260505015353 60 46 0.0 1.0 0.00 0.00 0.00 73 1010.9
20260505014847 60 1 0.0 3.0 0.00 0.00 0.00 73 1010.9
20260505014608 60 28 1.0 3.0 0.00 0.00 0.00 72 1010.8
20260505014059 60 1 0.0 2.0 0.00 0.00 0.00 72 1010.7
20260505013330 61 46 0.0 2.0 0.00 0.00 0.00 71 1010.6
20260505012824 61 178 1.0 3.0 0.00 0.00 0.00 71 1010.6
20260505012542 61 135 1.0 3.0 0.00 0.00 0.00 71 1010.6
20260505011815 62 286 0.0 2.0 0.00 0.00 0.00 70 1010.5
20260505011316 62 178 0.0 2.0 0.00 0.00 0.00 70 1010.5
20260505010816 62 46 0.0 3.0 0.00 0.00 0.00 70 1010.4
20260505010315 62 135 1.0 3.0 0.00 0.00 0.00 70 1010.4
20260505005816 62 141 1.0 3.0 0.00 0.00 0.00 69 1010.4
20260505005315 63 56 1.0 4.0 0.00 0.00 0.00 69 1010.3
20260505004816 63 223 1.0 4.0 0.00 0.00 0.00 68 1010.3
20260505004315 63 28 0.0 2.0 0.00 0.00 0.00 68 1010.2
20260505004254 64 269 1.0 5.0 0.00 0.00 0.00 68 1010.2
20260505003803 64 269 1.0 5.0 0.00 0.00 0.00 68 1010.2
20260505003038 65 314 1.0 4.0 0.00 0.00 0.00 67 1010.2
20260505002539 65 72 1.0 3.0 0.00 0.00 0.00 67 1010.2
20260505001814 65 1 1.0 3.0 0.00 0.00 0.00 67 1009.9
20260505001314 66 314 0.0 2.0 0.00 0.00 0.00 66 1009.9
20260505001037 66 135 0.0 2.0 0.00 0.00 0.00 65 1009.9
20260505000312 67 314 1.0 2.0 0.00 0.00 0.00 65 1009.9
20260504235811 67 213 1.0 3.0 0.00 0.00 0.00 64 1009.9
20260504235536 67 269 1.0 3.0 0.00 0.00 0.00 64 1009.8
20260504234809 68 135 2.0 11.0 0.00 0.00 0.00 63 1009.8
20260504234310 68 170 2.0 11.0 0.00 0.00 0.00 63 1009.9
20260504233809 68 292 2.0 5.0 0.00 0.00 0.00 62 1009.9
20260504233309 69 234 1.0 5.0 0.00 0.00 0.00 62 1009.9
20260504232809 69 178 2.0 6.0 0.00 0.00 0.00 62 1009.9
20260504232303 69 46 2.0 8.0 0.00 0.00 0.00 61 1009.9
20260504231754 70 245 2.0 8.0 0.00 0.00 0.00 61 1009.9
20260504231253 70 250 2.0 8.0 0.00 0.00 0.00 60 1009.9
20260504230743 70 258 2.0 12.0 0.00 0.00 0.00 60 1009.9
20260504230237 71 269 2.0 12.0 0.00 0.00 0.00 59 1009.9
20260504225730 71 142 3.0 10.0 0.00 0.00 0.00 58 1009.9
20260504225451 71 231 3.0 10.0 0.00 0.00 0.00 59 1009.9
20260504224719 71 100 3.0 10.0 0.00 0.00 0.00 59 1009.9
20260504224213 71 1 3.0 10.0 0.00 0.00 0.00 60 1009.9
20260504223707 71 146 3.0 10.0 0.00 0.00 0.00 60 1009.9
20260504223201 71 28 2.0 10.0 0.00 0.00 0.00 59 1009.9
20260504222654 71 245 3.0 16.0 0.00 0.00 0.00 60 1009.9
20260504222148 71 241 3.0 16.0 0.00 0.00 0.00 58 1009.9
20260504221643 72 253 3.0 11.0 0.00 0.00 0.00 59 1009.9
20260504221355 72 237 4.0 11.0 0.00 0.00 0.00 57 1010.0
20260504220631 72 227 4.0 11.0 0.00 0.00 0.00 58 1010.0
20260504220125 72 152 4.0 15.0 0.00 0.00 0.00 57 1009.9
20260504215618 72 243 4.0 15.0 0.00 0.00 0.00 58 1009.9
20260504215113 73 202 3.0 12.0 0.00 0.00 0.00 57 1010.0
20260504214607 73 259 4.0 13.0 0.00 0.00 0.00 57 1010.2
20260504214102 73 269 4.0 13.0 0.00 0.00 0.00 58 1010.2
20260504213601 73 188 3.0 12.0 0.00 0.00 0.00 57 1010.0
20260504213059 73 269 4.0 18.0 0.00 0.00 0.00 56 1010.2
20260504212559 73 274 5.0 18.0 0.00 0.00 0.00 58 1010.2
20260504212320 73 228 4.0 18.0 0.00 0.00 0.00 55 1010.0
20260504211559 73 241 4.0 18.0 0.00 0.00 0.00 56 1010.2
20260504211059 73 178 4.0 16.0 0.00 0.00 0.00 57 1010.2
20260504210559 73 245 5.0 14.0 0.00 0.00 0.00 58 1010.2
20260504210059 73 220 5.0 13.0 0.00 0.00 0.00 58 1010.2
20260504205559 73 269 5.0 14.0 0.00 0.00 0.00 57 1010.3
20260504205059 73 272 4.0 14.0 0.00 0.00 0.00 57 1010.2
20260504204557 73 187 4.0 13.0 0.00 0.00 0.00 57 1010.0
20260504204057 73 241 4.0 14.0 0.00 0.00 0.00 59 1010.2
20260504203601 73 274 5.0 14.0 0.00 0.00 0.00 57 1010.0
20260504203058 73 223 4.0 13.0 0.00 0.00 0.00 55 1010.2
20260504202557 73 276 4.0 13.0 0.00 0.00 0.00 57 1010.4
20260504202057 73 245 4.0 15.0 0.00 0.00 0.00 55 1010.3
20260504202040 73 28 5.0 16.0 0.00 0.00 0.00 56 1010.5
20260504201057 73 241 5.0 16.0 0.00 0.00 0.00 58 1010.6
20260504200822 73 248 4.0 10.0 0.00 0.00 0.00 59 1010.7
20260504200318 73 245 4.0 11.0 0.00 0.00 0.00 59 1010.6
20260504195810 72 89 5.0 16.0 0.00 0.00 0.00 59 1010.8
20260504195055 72 281 5.0 16.0 0.00 0.00 0.00 58 1010.9
20260504194555 72 286 4.0 11.0 0.00 0.00 0.00 60 1011.0
20260504194055 72 229 4.0 11.0 0.00 0.00 0.00 59 1011.0
20260504193815 72 338 4.0 11.0 0.00 0.00 0.00 59 1011.1
20260504193047 72 237 4.0 11.0 0.00 0.00 0.00 62 1011.2
20260504192540 72 46 5.0 18.0 0.00 0.00 0.00 59 1011.2
20260504192301 72 241 5.0 18.0 0.00 0.00 0.00 61 1011.4
20260504191528 72 277 5.0 15.0 0.00 0.00 0.00 57 1011.5
20260504191023 72 206 4.0 15.0 0.00 0.00 0.00 63 1011.6
20260504190516 72 276 4.0 15.0 0.00 0.00 0.00 61 1011.5
20260504190010 72 152 4.0 10.0 0.00 0.00 0.00 64 1011.6
20260504185504 72 139 4.0 16.0 0.00 0.00 0.00 60 1011.7
20260504184958 71 186 4.0 17.0 0.00 0.00 0.00 59 1011.6
20260504184713 72 56 5.0 17.0 0.00 0.00 0.00 58 1011.7
20260504184206 71 178 4.0 14.0 0.00 0.00 0.00 60 1011.6
20260504183440 71 250 4.0 11.0 0.00 0.00 0.00 61 1011.7
20260504182934 71 178 4.0 12.0 0.00 0.00 0.00 61 1011.7
20260504182428 71 259 4.0 12.0 0.00 0.00 0.00 59 1011.7
20260504182148 71 169 4.0 12.0 0.00 0.00 0.00 60 1011.9
20260504181415 71 269 4.0 13.0 0.00 0.00 0.00 60 1012.0
20260504181128 71 319 4.0 13.0 0.00 0.00 0.00 60 1012.0
20260504180627 72 239 3.0 11.0 0.00 0.00 0.00 60 1012.1
20260504175857 71 0 3.0 12.0 0.00 0.00 0.00 63 1012.2
20260504175610 71 269 4.0 16.0 0.00 0.00 0.00 64 1012.2
20260504174846 71 269 4.0 16.0 0.00 0.00 0.00 63 1012.2
20260504174428 70 307 4.0 11.0 0.00 0.00 0.00 61 1012.3
20260504173328 70 135 5.0 14.0 0.00 0.00 0.00 67 1012.5
20260504172822 70 307 4.0 15.0 0.00 0.00 0.00 60 1012.5
20260504172317 70 354 4.0 14.0 0.00 0.00 0.00 62 1012.6
20260504172259 70 334 5.0 14.0 0.00 0.00 0.00 60 1012.5
20260504171304 70 222 5.0 14.0 0.00 0.00 0.00 61 1012.7
20260504170758 70 245 5.0 14.0 0.00 0.00 0.00 66 1012.9
20260504170512 70 244 5.0 14.0 0.00 0.00 0.00 63 1012.8
20260504160237 69 278 4.0 11.0 0.00 0.00 0.00 64 1013.5
20260504150730 66 288 4.0 16.0 0.00 0.00 0.00 64 1014.0
20260504150229 66 46 4.0 16.0 0.00 0.00 0.00 68 1014.0
20260504141134 62 310 4.0 13.0 0.00 0.00 0.00 72 1014.2
20260504140634 62 248 4.0 13.0 0.00 0.00 0.00 74 1014.2
20260504140123 62 170 4.0 17.0 0.00 0.00 0.00 73 1014.2
20260504130522 55 234 2.0 9.0 0.00 0.00 0.00 82 1014.4
20260504110350 40 46 0.0 1.0 0.00 0.00 0.00 88 1014.8
20260504100342 41 46 0.0 1.0 0.00 0.00 0.00 86 1015.1
20260504081652 40 314 0.0 2.0 0.00 0.00 0.00 84 1015.2
20260504081146 40 15 1.0 3.0 0.00 0.00 0.00 84 1015.1
20260504080640 40 314 1.0 3.0 0.00 0.00 0.00 84 1015.1
20260504080133 40 314 1.0 4.0 0.00 0.00 0.00 83 1015.1
20260504070112 42 269 0.0 1.0 0.00 0.00 0.00 78 1015.1
20260504060110 44 269 2.0 3.0 0.00 0.00 0.00 77 1015.1
20260504050513 45 269 1.0 3.0 0.00 0.00 0.00 75 1015.2
20260504050007 45 253 1.0 3.0 0.00 0.00 0.00 75 1015.2
20260504045501 45 1 1.0 3.0 0.00 0.00 0.00 75 1015.2
20260504044955 45 257 1.0 3.0 0.00 0.00 0.00 75 1015.2
20260504044449 45 314 1.0 3.0 0.00 0.00 0.00 76 1015.2
20260504043943 45 269 1.0 3.0 0.00 0.00 0.00 76 1015.2
20260504043654 44 223 1.0 3.0 0.00 0.00 0.00 76 1015.1
20260504042931 44 269 1.0 3.0 0.00 0.00 0.00 76 1015.1
20260504042425 44 269 1.0 2.0 0.00 0.00 0.00 76 1015.1
20260504042145 44 269 1.0 2.0 0.00 0.00 0.00 76 1015.0
20260504041413 44 253 1.0 3.0 0.00 0.00 0.00 76 1014.8
20260504040907 44 250 1.0 3.0 0.00 0.00 0.00 76 1014.8
20260504040401 44 269 1.0 3.0 0.00 0.00 0.00 76 1014.8
20260504040118 44 314 1.0 3.0 0.00 0.00 0.00 76 1014.8
20260504035351 44 1 1.0 3.0 0.00 0.00 0.00 76 1014.8
20260504035108 44 296 1.0 2.0 0.00 0.00 0.00 76 1014.8